Date String (YYYY-MM-DD hh:mm:ss) UTC,Instrument flags,Ambient pressure (hPa),Sample flow (lpm),Bypass flow (lpm),Sample temperature (°C),Ambient temperature (°C),ASC tube jacket temperature (°C),LED temperature (°C),Box temperature (°C),Sample RH (%),Span deviation,Mass concentration (μg/m³),Mass concentration (μg/m³),Mass concentration (μg/m³)
DateTimeUTC,F1_M11,P_M11,Q1_M11,Q2_M11,T1_M11,T2_M11,T3_M11,T4_M11,T5_M11,U1_M11,ZSPAN_M11,X0_M11,X2_M11,X1_M11
2021-10-27 07:00:00,,0820.0,5.01,0.00,25.6,24.8,00.0,34.6,27.4,16.8,0000.0,0003.41,0000.75,0000.32
2021-10-27 07:01:00,,0820.0,5.00,0.00,25.6,24.8,00.0,34.6,27.4,16.7,0000.0,0003.46,0000.75,0000.31
2021-10-27 07:02:00,,0820.0,4.98,0.00,25.6,24.8,00.0,34.6,27.4,16.7,0000.0,0003.49,0000.77,0000.31
2021-10-27 07:03:00,,0819.9,5.00,0.00,25.6,24.8,00.0,34.6,27.4,17.0,0000.0,0003.90,0000.80,0000.32
2021-10-27 07:04:00,,0819.9,5.01,0.00,25.6,24.8,00.0,34.6,27.4,17.2,0000.0,0004.59,0000.85,0000.32
2021-10-27 07:05:00,,0820.0,4.99,0.00,25.6,24.8,00.0,34.6,27.5,16.9,0000.0,0004.12,0000.86,0000.32
2021-10-27 07:06:00,,0820.0,5.00,0.00,25.6,24.8,00.0,34.6,27.4,16.9,0000.0,0004.48,0000.86,0000.32
2021-10-27 07:07:00,,0820.1,5.01,0.00,25.6,24.8,00.0,34.6,27.4,17.0,0000.0,0004.81,0000.92,0000.33
2021-10-27 07:08:00,,0820.2,5.01,0.00,25.6,24.8,00.0,34.6,27.4,16.7,0000.0,0004.98,0000.94,0000.32
2021-10-27 07:09:00,,0820.2,5.00,0.00,25.6,24.8,00.0,34.6,27.4,16.4,0000.0,0004.97,0000.95,0000.31
2021-10-27 07:10:00,,0820.2,4.99,0.00,25.6,24.8,00.0,34.7,27.5,16.1,0000.0,0004.49,0000.97,0000.31
2021-10-27 07:11:00,,0820.2,5.01,0.00,25.6,24.8,00.0,34.6,27.5,15.9,0000.0,0004.51,0000.97,0000.31
2021-10-27 07:12:00,,0820.2,5.00,0.00,25.6,24.8,00.0,34.7,27.5,15.9,0000.0,0004.49,0000.97,0000.31
2021-10-27 07:13:00,,0820.2,5.01,0.00,25.7,24.8,00.0,34.7,27.5,16.0,0000.0,0004.41,0000.92,0000.30
2021-10-27 07:14:00,,0820.2,4.99,0.00,25.7,24.8,00.0,34.7,27.5,15.9,0000.0,0004.21,0000.96,0000.29
2021-10-27 07:15:00,,0820.2,5.00,0.00,25.7,24.8,00.0,34.7,27.5,15.9,0000.0,0003.68,0000.93,0000.28
2021-10-27 07:16:00,,0820.2,4.99,0.00,25.7,24.9,00.0,34.7,27.5,15.9,0000.0,0003.75,0000.96,0000.28
2021-10-27 07:17:00,,0820.3,4.99,0.00,25.7,24.9,00.0,34.7,27.5,15.7,0000.0,0004.41,0000.91,0000.27
2021-10-27 07:18:00,,0820.3,4.99,0.00,25.7,24.9,00.0,34.7,27.5,15.8,0000.0,0004.09,0000.84,0000.26
2021-10-27 07:19:00,,0820.3,5.01,0.00,25.7,24.9,00.0,34.7,27.5,16.0,0000.0,0003.88,0000.81,0000.26
2021-10-27 07:20:00,,0820.3,5.00,0.00,25.7,24.9,00.0,34.7,27.5,16.0,0000.0,0004.01,0000.80,0000.26
2021-10-27 07:21:00,,0820.3,5.00,0.00,25.7,24.9,00.0,34.7,27.5,16.1,0000.0,0004.10,0000.77,0000.26
2021-10-27 07:22:00,,0820.3,5.00,0.00,25.7,24.9,00.0,34.7,27.5,16.1,0000.0,0004.18,0000.76,0000.25
2021-10-27 07:23:00,,0820.3,5.00,0.00,25.7,24.9,00.0,34.7,27.5,16.0,0000.0,0004.23,0000.74,0000.24
2021-10-27 07:24:00,,0820.3,4.99,0.00,25.7,24.9,00.0,34.7,27.5,15.9,0000.0,0004.26,0000.74,0000.24
2021-10-27 07:25:00,,0820.3,5.01,0.00,25.7,24.9,00.0,34.7,27.6,16.0,0000.0,0004.21,0000.71,0000.24
2021-10-27 07:26:00,,0820.3,4.99,0.00,25.7,24.9,00.0,34.7,27.5,16.1,0000.0,0004.17,0000.69,0000.25
2021-10-27 07:27:00,,0820.3,5.00,0.00,25.7,24.9,00.0,34.7,27.5,16.6,0000.0,0003.69,0000.63,0000.25
2021-10-27 07:28:00,,0820.3,5.01,0.00,25.7,24.8,00.0,34.7,27.5,17.0,0000.0,0002.29,0000.66,0000.26
2021-10-27 07:29:00,,0820.3,5.00,0.00,25.6,24.8,00.0,34.7,27.5,17.2,0000.0,0002.37,0000.69,0000.27
2021-10-27 07:30:00,,0820.3,5.01,0.00,25.6,24.7,00.0,34.7,27.4,17.3,0000.0,0002.49,0000.69,0000.27
2021-10-27 07:31:00,,0820.2,5.01,0.00,25.6,24.7,00.0,34.7,27.4,17.3,0000.0,0002.20,0000.65,0000.27
2021-10-27 07:32:00,,0820.3,5.00,0.00,25.5,24.7,00.0,34.7,27.4,17.0,0000.0,0001.98,0000.64,0000.27
2021-10-27 07:33:00,,0820.3,4.99,0.00,25.5,24.7,00.0,34.7,27.3,16.5,0000.0,0001.89,0000.64,0000.28
2021-10-27 07:34:00,,0820.4,5.01,0.00,25.5,24.7,00.0,34.7,27.3,15.4,0000.0,0001.83,0000.63,0000.28
2021-10-27 07:35:00,,0820.4,5.00,0.00,25.5,24.7,00.0,34.6,27.3,15.0,0000.0,0001.79,0000.63,0000.27
2021-10-27 07:36:00,,0820.5,5.00,0.00,25.5,24.7,00.0,34.6,27.3,14.4,0000.0,0001.66,0000.59,0000.27
2021-10-27 07:37:00,,0820.6,4.99,0.00,25.5,24.7,00.0,34.6,27.3,15.3,0000.0,0001.44,0000.56,0000.27
2021-10-27 07:38:00,,0820.6,4.99,0.00,25.5,24.7,00.0,34.6,27.4,15.2,0000.0,0001.50,0000.56,0000.26
2021-10-27 07:39:00,,0820.6,5.01,0.00,25.5,24.7,00.0,34.6,27.3,15.5,0000.0,0001.49,0000.56,0000.26
2021-10-27 07:40:00,,0820.6,5.00,0.00,25.5,24.7,00.0,34.6,27.3,16.0,0000.0,0001.47,0000.53,0000.25
2021-10-27 07:41:00,,0820.6,5.01,0.00,25.5,24.7,00.0,34.6,27.3,16.6,0000.0,0001.33,0000.50,0000.26
2021-10-27 07:42:00,,0820.6,5.00,0.00,25.5,24.7,00.0,34.6,27.3,17.1,0000.0,0001.78,0000.52,0000.26
2021-10-27 07:43:00,,0820.7,5.00,0.00,25.5,24.6,00.0,34.6,27.3,17.2,0000.0,0001.93,0000.53,0000.26
2021-10-27 07:44:00,,0820.6,5.00,0.00,25.5,24.6,00.0,34.6,27.2,16.9,0000.0,0001.86,0000.53,0000.27
2021-10-27 07:45:00,,0820.6,4.99,0.00,25.4,24.6,00.0,34.6,27.3,16.3,0000.0,0001.89,0000.55,0000.28
2021-10-27 07:46:00,,0820.6,5.00,0.00,25.4,24.6,00.0,34.6,27.3,16.2,0000.0,0002.04,0000.61,0000.30
2021-10-27 07:47:00,,0820.6,5.01,0.00,25.4,24.6,00.0,34.5,27.2,15.6,0000.0,0002.55,0000.62,0000.31
2021-10-27 07:48:00,,0820.6,4.99,0.00,25.4,24.6,00.0,34.5,27.3,15.5,0000.0,0003.28,0000.63,0000.30
2021-10-27 07:49:00,,0820.6,5.00,0.00,25.4,24.6,00.0,34.5,27.3,15.2,0000.0,0003.27,0000.63,0000.31
2021-10-27 07:50:00,,0820.6,5.00,0.00,25.4,24.6,00.0,34.5,27.3,14.3,0000.0,0003.11,0000.60,0000.31
2021-10-27 07:51:00,,0820.6,4.99,0.00,25.4,24.6,00.0,34.5,27.3,13.8,0000.0,0003.40,0000.63,0000.31
2021-10-27 07:52:00,,0820.6,5.01,0.00,25.4,24.6,00.0,34.5,27.3,13.5,0000.0,0003.43,0000.64,0000.30
2021-10-27 07:53:00,,0820.6,4.99,0.00,25.4,24.6,00.0,34.5,27.3,13.4,0000.0,0002.95,0000.64,0000.30
2021-10-27 07:54:00,,0820.6,4.99,0.00,25.5,24.6,00.0,34.5,27.3,13.3,0000.0,0002.79,0000.59,0000.30
2021-10-27 07:55:00,,0820.6,5.01,0.00,25.5,24.7,00.0,34.5,27.3,12.9,0000.0,0002.77,0000.59,0000.30
2021-10-27 07:56:00,,0820.6,4.99,0.00,25.5,24.7,00.0,34.5,27.3,12.7,0000.0,0002.66,0000.57,0000.31
2021-10-27 07:57:00,,0820.6,5.00,0.00,25.5,24.7,00.0,34.5,27.4,12.7,0000.0,0002.53,0000.53,0000.32
2021-10-27 07:58:00,,0820.7,5.00,0.00,25.5,24.7,00.0,34.5,27.4,12.7,0000.0,0001.98,0000.56,0000.34
2021-10-27 07:59:00,,0820.6,4.99,0.00,25.5,24.7,00.0,34.5,27.4,12.6,0000.0,0001.32,0000.56,0000.36
